CASSIOPE

Last updated on Wed Sep 17 2025 00:03:34 GMT+0000 (Coordinated Universal Time)

1 39265U 13055A 25259.52972192 .00029710 -29878-6 44626-3 0 9994 2 39265 80.9417 33.7558 0372023 251.3590 104.6906 15.02807655626233
UTC large
Height (km)
Speed (km/s)
/
Latitude / Longitude
Inclination (degrees)
Orbital Period (minutes)
Azimuth
Elevation
Range (km)
Doppler Factor

Next 0 passes for location: London (51.5072 / 0.1276)

Sorry there are no passes over London.